Find Starlink 4681

NORAD ID: 53594 Int'l Des: 2022-104 Owner: SPXS Country: US Constellation: starlink operational
LEOCIRCULAR

現在のビュー

3D地球を読み込み中...

About Starlink 4681

Starlink 4681 (NORAD 53594) is a starlink constellation satellite (v1.5) launched Aug 28, 2022 by SPXS of US. It operates in LEO, CIRCULAR orbit with a mass of 300.00 kg.

Starlink 4681について

説明を読み込み中...

次回通過

Passes for default location (London). Set your location on the main map for personalized predictions.

高度履歴

Loading altitude history...

軌道要素

1 53594U 22104G 26176.24364521 .00815449 39897-3 70602-3 0 9992
2 53594 53.2109 84.7991 0002986 251.8632 108.2080 16.12724374212830
Epoch: Jun 25, 2026 • Age: 9 hours

現在のステータス

高度 244.9 km
速度 7.76 km/s
衛星直下点 47.94°N, 1.22°W
打ち上げ日 Aug 28, 2022
運用期間 3.8 years
タイプ internet

技術仕様

分類 Payload
質量 300.00 kg
乾燥質量 290.00 kg
総質量 300.00 kg
長さ 0.20 m
直径 2.80 m
スパン 9.00 m
形状 Box + pan
製造者 SPXS
バスタイプ Starlink
フェーズステータス In Orbit
所有者/国 SPXS/US

Most Searched